Temp
19 17 16 13 12 11 11 12 11 12 11 10 9 10 10 10 9 9 9 11 10 10 11 11 12 11 12 12 12 12 12 12
19 17 15 14 12 11 10 11 11 11 11 9 9 9 9 9 8 9 9 10 11 11 11 12 12 12 12 12 12 12 12 12
19 16 15 13 12 10 10 10 11 11 9 9 9 9 9 8 8 9 9 10 10 11 11 11 11 11 11 11 11 11 12 12
19 16 14 13 12 10 10 10 11 10 9 9 9 9 9 9 8 9 10 10 10 10 11 11 11 11 11 11 11 11 11 11
20 17 15 13 12 11 10 10 10 10 9 9 9 9 9 8 9 10 9 10 10 10 10 11 12 11 11 10 11 11 11 11
21 18 16 14 12 11 10 10 9 10 9 9 9 9 9 9 9 9 9 9 10 10 10 11 12 12 11 11 11 11 11 11
22 20 17 15 13 12 10 10 10 9 10 9 9 9 9 8 9 9 9 10 10 11 11 11 10 11 11 10 11 11 11 11
23 20 18 16 14 13 11 10 10 10 10 10 9 9 9 9 10 10 9 10 10 11 10 10 11 11 10 11 11 11 11 11
23 21 19 17 15 14 13 10 9 10 9 9 9 9 9 9 9 9 9 9 9 10 10 11 11 10 10 10 11 11 11 11
23 22 20 18 16 14 13 11 10 9 9 9 9 9 9 9 9 9 9 10 10 9 10 11 11 11 10 10 11 11 11 11
23 22 21 19 18 16 14 13 11 10 10 9 9 9 9 9 9 9 9 10 10 10 10 11 11 10 10 10 11 11 11 11
23 23 22 20 19 17 15 14 13 12 11 10 10 10 10 9 9 9 10 10 10 10 10 10 10 10 10 10 10 11 11 11
23 22 22 21 20 18 16 15 14 13 12 12 11 11 10 10 11 11 10 10 10 11 11 10 10 11 11 11 10 10 10 10
21 21 21 21 20 19 18 16 15 14 13 13 12 12 11 12 12 11 11 10 10 10 10 10 10 11 11 11 10 10 10 10
18 18 17 18 20 19 19 18 16 15 14 14 13 12 13 14 14 12 11 11 11 10 10 10 11 10 10 10 10 10 10 10
16 16 16 16 16 17 18 18 17 16 15 14 14 13 12 11 11 12 12 11 10 10 10 10 10 10 10 10 10 10 10 9
15 15 15 14 14 15 15 16 18 17 16 15 15 14 13 12 11 11 11 11 11 10 10 10 10 10 10 10 10 10 10 9
14 13 13 13 12 13 14 15 16 17 17 17 15 14 14 13 12 11 11 11 11 10 10 10 10 10 10 10 10 10 9 9
12 12 11 11 11 11 12 14 15 16 17 17 16 15 15 14 13 12 12 11 11 10 10 10 10 10 10 10 10 9 9 9
Height
1441 1444 1445 1442 1443 1446 1448 1450 1453 1455 1458 1460 1463 1466 1468 1472 1478 1488 1497 1504 1512 1515 1522 1525 1531 1535 1539 1544 1548 1552 1556 1559
1435 1440 1443 1441 1443 1444 1447 1449 1451 1453 1455 1457 1460 1463 1465 1471 1481 1490 1498 1505 1510 1514 1519 1523 1529 1533 1538 1542 1547 1550 1553 1557
1430 1435 1440 1441 1440 1443 1445 1447 1449 1452 1455 1458 1461 1464 1470 1476 1484 1489 1497 1503 1510 1513 1519 1524 1530 1534 1538 1541 1543 1548 1551 1554
1423 1430 1435 1438 1438 1440 1443 1445 1449 1451 1455 1460 1464 1467 1473 1478 1483 1491 1497 1502 1507 1513 1519 1524 1529 1532 1535 1538 1542 1546 1547 1551
1415 1424 1429 1433 1435 1437 1440 1444 1447 1451 1455 1459 1463 1467 1470 1476 1482 1488 1495 1501 1506 1512 1517 1521 1525 1527 1531 1536 1539 1542 1545 1547
1409 1417 1425 1430 1434 1433 1436 1441 1445 1449 1453 1457 1462 1467 1471 1477 1481 1486 1491 1498 1503 1508 1513 1517 1520 1523 1527 1530 1534 1537 1540 1544
1405 1412 1420 1426 1430 1431 1434 1437 1441 1445 1450 1455 1460 1464 1468 1474 1479 1483 1488 1493 1498 1503 1507 1511 1516 1518 1523 1527 1529 1531 1534 1538
1401 1408 1415 1422 1425 1427 1430 1433 1437 1441 1446 1451 1456 1461 1466 1470 1475 1479 1484 1488 1493 1497 1502 1507 1510 1513 1518 1522 1523 1526 1529 1532
1398 1404 1410 1417 1421 1424 1427 1430 1433 1437 1441 1446 1451 1456 1461 1465 1470 1474 1479 1483 1488 1493 1497 1501 1505 1509 1513 1515 1518 1519 1523 1525
1396 1401 1406 1412 1417 1420 1423 1426 1429 1432 1436 1440 1444 1449 1454 1458 1464 1469 1474 1479 1483 1486 1490 1494 1499 1502 1505 1509 1511 1513 1517 1519
1392 1397 1402 1406 1412 1417 1421 1424 1427 1428 1432 1435 1438 1443 1448 1451 1457 1460 1466 1471 1476 1479 1484 1489 1493 1497 1500 1501 1503 1507 1509 1512
1394 1395 1397 1400 1405 1410 1415 1420 1424 1427 1427 1430 1432 1436 1441 1445 1448 1451 1455 1461 1465 1470 1474 1480 1484 1488 1491 1493 1495 1498 1500 1502
1394 1397 1398 1400 1402 1406 1409 1414 1421 1423 1424 1425 1429 1431 1435 1437 1440 1444 1448 1452 1457 1460 1465 1470 1473 1476 1480 1483 1485 1487 1490 1492
1396 1397 1398 1399 1403 1406 1408 1408 1411 1419 1421 1420 1421 1423 1424 1425 1429 1435 1440 1445 1449 1453 1457 1459 1462 1465 1469 1472 1475 1478 1480 1482
1400 1399 1399 1401 1402 1402 1405 1407 1407 1410 1416 1417 1416 1415 1417 1418 1422 1426 1431 1433 1437 1441 1444 1447 1451 1456 1459 1461 1464 1466 1467 1469
1408 1406 1403 1402 1401 1402 1405 1403 1404 1404 1407 1412 1410 1411 1413 1416 1417 1418 1421 1425 1429 1432 1435 1437 1441 1444 1446 1449 1452 1455 1457 1459
1411 1410 1407 1405 1401 1399 1398 1400 1401 1399 1399 1400 1403 1408 1409 1408 1410 1412 1416 1416 1418 1424 1424 1426 1429 1430 1432 1435 1440 1443 1447 1449
1410 1411 1410 1409 1406 1402 1398 1395 1394 1397 1395 1394 1396 1398 1400 1400 1401 1405 1405 1406 1410 1410 1413 1417 1417 1419 1421 1425 1430 1435 1437 1437
1411 1411 1410 1409 1405 1401 1397 1394 1392 1391 1392 1390 1389 1389 1390 1392 1393 1393 1394 1396 1398 1400 1403 1405 1408 1409 1413 1415 1419 1424 1426 1428
Wind_Speed
16 13 12 16 12 15 13 12 12 13 13 15 13 20 36 46 42 43 40 37 34 31 26 25 29 25 24 21 23 21 21 21
19 18 15 15 13 17 18 17 15 14 12 14 16 30 39 42 43 40 32 35 36 34 25 23 26 24 24 22 22 22 19 21
21 20 18 18 15 15 19 17 17 14 14 24 34 36 38 42 38 40 34 37 37 34 29 30 27 23 21 22 22 22 20 22
26 23 21 20 19 19 23 22 19 14 15 26 29 36 39 42 39 41 38 33 34 31 32 34 31 28 24 20 25 24 25 23
29 27 24 24 22 20 21 24 24 19 19 26 34 37 39 45 49 45 39 36 37 39 33 33 31 28 25 26 26 26 22 24
29 30 26 23 23 23 22 27 26 26 25 29 34 34 37 46 46 45 45 40 39 41 38 32 35 31 27 29 29 28 27 24
23 28 26 25 22 25 23 27 29 31 30 30 35 35 39 46 51 49 45 44 44 43 40 35 30 29 33 27 26 27 29 31
21 30 29 28 27 31 25 27 33 36 34 32 33 36 39 42 50 56 54 49 47 49 40 40 37 34 35 38 35 32 32 32
17 25 29 30 31 31 27 29 29 36 36 35 35 37 38 41 41 53 59 55 47 50 48 42 43 36 40 39 38 38 36 36
12 17 27 30 32 33 30 27 27 29 37 38 39 37 36 38 39 43 55 54 53 46 53 48 47 45 41 43 42 41 38 38
18 17 23 29 30 31 32 29 28 29 29 38 42 42 41 41 39 43 45 49 55 57 55 53 47 48 45 44 44 42 41 42
5 9 19 27 30 31 32 32 29 30 32 29 38 43 41 41 40 44 43 42 50 51 56 60 53 47 45 45 46 46 46 46
6 3 2 8 26 29 31 31 32 32 33 32 30 35 43 45 45 43 42 42 42 45 53 56 56 61 59 54 53 52 49 48
18 19 2 6 12 21 27 31 32 33 33 36 37 34 36 42 44 49 47 47 46 47 49 50 53 56 59 59 56 52 50 49
23 26 28 27 4 15 22 27 32 32 34 36 39 42 40 39 40 43 46 47 48 51 51 49 51 52 48 50 50 51 51 52
18 22 25 27 24 20 11 23 29 33 34 37 43 43 43 41 41 44 45 47 50 50 51 52 52 49 53 55 53 51 50 51
15 17 20 25 27 27 24 24 25 30 35 38 41 40 41 45 45 44 43 46 48 50 52 53 53 55 58 56 53 49 49 49
19 20 21 22 24 27 28 27 21 19 31 37 40 40 41 44 46 45 47 49 47 51 54 51 53 54 54 53 52 50 49 46
19 20 22 22 20 17 20 21 22 25 26 33 37 40 43 45 44 46 49 50 49 48 48 49 50 51 48 48 47 45 46 47
Wind_Direction
201 197 194 217 234 201 205 199 190 205 208 219 219 225 204 196 184 172 176 171 186 179 179 183 180 173 172 186 175 182 188 184
191 191 192 216 223 193 211 198 200 200 197 200 200 169 166 179 169 163 173 192 190 180 180 177 180 178 183 181 180 189 188 190
176 189 193 195 218 201 202 206 196 190 180 181 171 176 162 161 165 171 179 193 192 189 185 183 184 179 187 192 191 196 193 196
175 185 194 194 207 208 204 204 196 193 178 181 175 169 165 170 170 175 191 193 195 188 194 198 187 189 188 202 208 199 195 201
177 185 194 198 202 211 203 199 199 195 187 187 186 182 184 179 174 182 190 197 191 194 203 201 197 194 192 214 218 202 198 211
177 184 192 205 193 207 208 199 195 196 193 194 196 198 198 187 184 187 191 195 195 200 197 201 198 200 198 215 221 217 204 209
179 184 189 195 198 208 208 200 196 198 196 199 199 200 198 194 194 197 195 198 206 206 203 201 203 212 210 215 219 226 223 216
178 173 182 191 195 202 205 203 199 199 201 204 205 205 206 206 205 203 201 202 206 212 215 212 213 216 220 219 218 224 230 231
183 182 187 192 196 203 214 205 203 202 202 208 210 208 211 213 215 212 208 208 210 213 221 222 221 225 227 226 227 231 234 238
181 190 190 193 198 201 214 207 206 209 206 205 208 207 214 218 218 220 217 217 215 221 225 224 222 225 233 235 236 237 239 239
187 192 196 195 201 206 210 217 209 221 214 210 210 210 215 221 221 222 223 225 222 230 225 226 227 229 231 237 242 243 245 247
4 209 199 200 199 202 212 211 211 213 233 223 213 213 211 217 219 221 228 226 226 230 230 226 228 229 231 239 245 249 249 248
87 21 298 221 196 200 211 216 210 214 223 239 228 218 214 219 221 224 224 224 227 229 229 234 239 237 239 242 244 247 246 245
3 15 50 189 205 208 211 220 223 215 216 226 238 233 223 221 223 223 226 224 225 228 232 234 230 237 240 245 246 246 246 245
15 6 2 11 285 220 222 226 230 231 219 220 230 239 237 229 227 226 225 224 226 226 230 233 234 231 234 234 234 237 239 242
11 358 352 350 350 358 307 233 232 241 235 225 228 231 237 236 234 231 231 229 228 229 227 230 228 230 233 233 235 238 241 243
7 1 360 350 343 334 329 347 242 233 239 237 235 232 233 232 229 227 227 233 232 228 231 231 232 235 236 237 236 237 240 242
12 6 1 350 338 335 328 315 316 302 241 245 238 234 236 236 235 228 230 231 230 232 232 231 235 239 241 241 240 240 241 242
12 6 356 352 344 327 312 311 296 302 300 250 246 239 236 239 237 231 237 235 230 231 232 233 234 239 240 244 243 242 245 246